Time,TemperatureF,DewpointF,PressureIn,WindDirection,WindDirectionDegrees,WindSpeedMPH,WindSpeedGustMPH,Humidity,HourlyPrecipIn,Conditions,Clouds,dailyrainin,SoftwareType,DateUTC
2013-08-03 00:00:00,64.8,60.8,29.85,WSW,245,2.0,11.0,87,0.00,,,0.00,Wunderground v.1.15,2013-08-03 04:00:00,
2013-08-03 00:05:00,65.1,60.8,29.85,SSW,200,2.0,11.0,86,0.00,,,0.00,Wunderground v.1.15,2013-08-03 04:05:00,
2013-08-03 00:10:00,65.6,61.0,29.85,SSW,199,3.0,11.0,85,0.00,,,0.00,Wunderground v.1.15,2013-08-03 04:10:00,
2013-08-03 00:15:00,66.0,61.0,29.85,SSW,193,4.0,11.0,84,0.00,,,0.00,Wunderground v.1.15,2013-08-03 04:15:00,
2013-08-03 00:20:00,66.0,60.7,29.85,South,188,3.0,3.0,83,0.00,,,0.00,Wunderground v.1.15,2013-08-03 04:20:00,
2013-08-03 00:25:00,65.8,60.5,29.85,SSW,206,3.0,11.0,83,0.00,,,0.00,Wunderground v.1.15,2013-08-03 04:25:00,
2013-08-03 00:35:00,65.4,60.8,29.85,SW,226,2.0,11.0,85,0.00,,,0.00,Wunderground v.1.15,2013-08-03 04:35:00,
2013-08-03 00:40:00,65.3,60.7,29.85,SW,228,2.0,2.0,85,0.00,,,0.00,Wunderground v.1.15,2013-08-03 04:40:00,
2013-08-03 00:45:00,65.3,60.7,29.85,SW,215,3.0,3.0,85,0.00,,,0.00,Wunderground v.1.15,2013-08-03 04:45:00,
2013-08-03 00:50:00,65.6,60.6,29.85,SW,220,3.0,11.0,84,0.00,,,0.00,Wunderground v.1.15,2013-08-03 04:50:00,
2013-08-03 00:55:00,65.6,60.6,29.85,WSW,241,3.0,11.0,84,0.00,,,0.00,Wunderground v.1.15,2013-08-03 04:55:00,
2013-08-03 01:05:00,65.8,60.5,29.85,WSW,245,4.0,11.0,83,0.00,,,0.00,Wunderground v.1.15,2013-08-03 05:05:00,
2013-08-03 01:10:00,66.2,60.2,29.84,WSW,240,4.0,11.0,81,0.00,,,0.00,Wunderground v.1.15,2013-08-03 05:10:00,
2013-08-03 01:15:00,66.4,60.4,29.85,SW,228,4.0,11.0,81,0.00,,,0.00,Wunderground v.1.15,2013-08-03 05:15:00,
2013-08-03 01:20:00,66.6,60.2,29.85,SSW,196,3.0,3.0,80,0.00,,,0.00,Wunderground v.1.15,2013-08-03 05:20:00,
2013-08-03 01:25:00,66.6,60.2,29.84,WSW,238,4.0,4.0,80,0.00,,,0.00,Wunderground v.1.15,2013-08-03 05:25:00,
2013-08-03 01:35:00,66.7,60.3,29.84,SW,215,3.0,11.0,80,0.00,,,0.00,Wunderground v.1.15,2013-08-03 05:35:00,
2013-08-03 01:40:00,66.5,60.5,29.84,WSW,245,3.0,11.0,81,0.00,,,0.00,Wunderground v.1.15,2013-08-03 05:40:00,
2013-08-03 01:45:00,66.5,60.1,29.84,WSW,239,3.0,11.0,80,0.00,,,0.00,Wunderground v.1.15,2013-08-03 05:45:00,
2013-08-03 01:55:00,66.8,60.1,29.83,WSW,245,4.0,11.0,79,0.00,,,0.00,Wunderground v.1.15,2013-08-03 05:55:00,
2013-08-03 02:05:00,66.1,59.7,29.83,SSW,209,3.0,11.0,80,0.00,,,0.00,Wunderground v.1.15,2013-08-03 06:05:00,
2013-08-03 02:10:00,65.8,60.5,29.83,SSW,193,3.0,11.0,83,0.00,,,0.00,Wunderground v.1.15,2013-08-03 06:10:00,
2013-08-03 02:15:00,65.4,60.4,29.83,SSW,203,4.0,11.0,84,0.00,,,0.00,Wunderground v.1.15,2013-08-03 06:15:00,
2013-08-03 02:25:00,65.2,60.6,29.83,SW,226,4.0,11.0,85,0.00,,,0.00,Wunderground v.1.15,2013-08-03 06:25:00,
2013-08-03 02:30:00,65.3,60.7,29.82,South,190,4.0,4.0,85,0.00,,,0.00,Wunderground v.1.15,2013-08-03 06:30:00,
2013-08-03 02:35:00,65.0,60.7,29.82,SW,230,4.0,11.0,86,0.00,,,0.00,Wunderground v.1.15,2013-08-03 06:35:00,
2013-08-03 02:40:00,64.9,60.6,29.82,SW,228,3.0,11.0,86,0.00,,,0.00,Wunderground v.1.15,2013-08-03 06:40:00,
2013-08-03 02:50:00,64.7,60.7,29.81,South,185,4.0,11.0,87,0.00,,,0.00,Wunderground v.1.15,2013-08-03 06:50:00,
2013-08-03 02:55:00,64.9,60.6,29.81,SW,226,4.0,11.0,86,0.00,,,0.00,Wunderground v.1.15,2013-08-03 06:55:00,
2013-08-03 03:00:00,65.1,60.5,29.80,WSW,238,4.0,11.0,85,0.00,,,0.00,Wunderground v.1.15,2013-08-03 07:00:00,
2013-08-03 03:05:00,65.1,60.5,29.80,SW,235,4.0,11.0,85,0.00,,,0.00,Wunderground v.1.15,2013-08-03 07:05:00,
2013-08-03 03:15:00,65.2,60.6,29.80,SW,236,5.0,11.0,85,0.00,,,0.00,Wunderground v.1.15,2013-08-03 07:15:00,
2013-08-03 03:20:00,65.0,60.4,29.80,SSW,198,3.0,11.0,85,0.00,,,0.00,Wunderground v.1.15,2013-08-03 07:20:00,
2013-08-03 03:25:00,64.9,60.3,29.80,SSW,196,3.0,11.0,85,0.00,,,0.00,Wunderground v.1.15,2013-08-03 07:25:00,
2013-08-03 03:30:00,64.9,60.6,29.81,SSW,197,4.0,4.0,86,0.00,,,0.00,Wunderground v.1.15,2013-08-03 07:30:00,
2013-08-03 03:40:00,65.0,60.4,29.81,SW,228,4.0,11.0,85,0.00,,,0.00,Wunderground v.1.15,2013-08-03 07:40:00,
2013-08-03 03:45:00,64.9,60.6,29.80,SW,232,4.0,11.0,86,0.00,,,0.00,Wunderground v.1.15,2013-08-03 07:45:00,
2013-08-03 03:50:00,64.8,60.5,29.80,SW,217,3.0,3.0,86,0.00,,,0.00,Wunderground v.1.15,2013-08-03 07:50:00,
2013-08-03 03:55:00,64.8,60.5,29.81,SSW,199,3.0,4.0,86,0.00,,,0.00,Wunderground v.1.15,2013-08-03 07:55:00,
2013-08-03 04:05:00,64.5,60.5,29.80,SW,215,3.0,11.0,87,0.00,,,0.00,Wunderground v.1.15,2013-08-03 08:05:00,
2013-08-03 04:10:00,64.4,60.4,29.80,SW,215,3.0,3.0,87,0.00,,,0.00,Wunderground v.1.15,2013-08-03 08:10:00,
2013-08-03 04:15:00,64.3,60.3,29.80,SW,215,3.0,11.0,87,0.00,,,0.00,Wunderground v.1.15,2013-08-03 08:15:00,
2013-08-03 04:20:00,64.1,60.5,29.80,SW,223,2.0,11.0,88,0.00,,,0.00,Wunderground v.1.15,2013-08-03 08:20:00,
2013-08-03 04:25:00,64.1,60.5,29.80,SSW,209,3.0,11.0,88,0.00,,,0.00,Wunderground v.1.15,2013-08-03 08:25:00,
2013-08-03 04:35:00,63.9,60.3,29.80,SSW,194,3.0,11.0,88,0.00,,,0.00,Wunderground v.1.15,2013-08-03 08:35:00,
2013-08-03 04:40:00,63.9,60.3,29.80,SSW,198,3.0,11.0,88,0.00,,,0.00,Wunderground v.1.15,2013-08-03 08:40:00,
2013-08-03 04:45:00,63.8,60.2,29.80,SSW,200,3.0,11.0,88,0.00,,,0.00,Wunderground v.1.15,2013-08-03 08:45:00,
2013-08-03 04:55:00,63.6,60.0,29.81,SW,232,2.0,3.0,88,0.00,,,0.00,Wunderground v.1.15,2013-08-03 08:55:00,
2013-08-03 05:00:00,63.6,60.0,29.81,WSW,240,3.0,3.0,88,0.00,,,0.00,Wunderground v.1.15,2013-08-03 09:00:00,
2013-08-03 05:05:00,63.7,60.1,29.81,SW,232,3.0,4.0,88,0.00,,,0.00,Wunderground v.1.15,2013-08-03 09:05:00,
2013-08-03 05:10:00,63.7,60.1,29.81,SSW,212,3.0,11.0,88,0.00,,,0.00,Wunderground v.1.15,2013-08-03 09:10:00,
2013-08-03 05:15:00,63.7,60.1,29.81,SSW,201,3.0,11.0,88,0.00,,,0.00,Wunderground v.1.15,2013-08-03 09:15:00,
2013-08-03 05:25:00,63.5,59.9,29.81,SSW,203,2.0,11.0,88,0.00,,,0.00,Wunderground v.1.15,2013-08-03 09:25:00,
2013-08-03 05:30:00,63.4,59.8,29.81,SSW,204,1.0,11.0,88,0.00,,,0.00,Wunderground v.1.15,2013-08-03 09:30:00,
2013-08-03 05:35:00,63.3,59.7,29.81,SSW,204,2.0,11.0,88,0.00,,,0.00,Wunderground v.1.15,2013-08-03 09:35:00,
2013-08-03 05:40:00,63.3,60.0,29.81,SSW,204,2.0,2.0,89,0.00,,,0.00,Wunderground v.1.15,2013-08-03 09:40:00,
2013-08-03 05:45:00,63.2,59.9,29.81,SSW,204,2.0,11.0,89,0.00,,,0.00,Wunderground v.1.15,2013-08-03 09:45:00,
2013-08-03 05:55:00,63.3,60.0,29.81,SSW,196,2.0,11.0,89,0.00,,,0.00,Wunderground v.1.15,2013-08-03 09:55:00,
2013-08-03 06:00:00,63.7,60.1,29.81,SSW,209,3.0,11.0,88,0.00,,,0.00,Wunderground v.1.15,2013-08-03 10:00:00,
2013-08-03 06:05:00,64.0,60.1,29.81,SSW,201,4.0,11.0,87,0.00,,,0.00,Wunderground v.1.15,2013-08-03 10:05:00,
2013-08-03 06:15:00,64.0,60.1,29.82,South,186,5.0,11.0,87,0.00,,,0.00,Wunderground v.1.15,2013-08-03 10:15:00,
2013-08-03 06:20:00,64.0,60.4,29.82,South,183,4.0,4.0,88,0.00,,,0.00,Wunderground v.1.15,2013-08-03 10:20:00,
2013-08-03 06:25:00,64.0,60.4,29.81,South,191,4.0,5.0,88,0.00,,,0.00,Wunderground v.1.15,2013-08-03 10:25:00,
2013-08-03 06:30:00,63.9,60.3,29.82,South,190,4.0,4.0,88,0.00,,,0.00,Wunderground v.1.15,2013-08-03 10:30:00,
2013-08-03 06:40:00,63.7,60.4,29.81,South,191,3.0,3.0,89,0.00,,,0.00,Wunderground v.1.15,2013-08-03 10:40:00,
2013-08-03 06:45:00,63.7,60.4,29.81,South,191,3.0,11.0,89,0.00,,,0.00,Wunderground v.1.15,2013-08-03 10:45:00,
2013-08-03 06:50:00,63.7,60.4,29.81,South,190,3.0,11.0,89,0.00,,,0.00,Wunderground v.1.15,2013-08-03 10:50:00,
2013-08-03 06:55:00,63.6,60.3,29.81,South,184,3.0,11.0,89,0.00,,,0.00,Wunderground v.1.15,2013-08-03 10:55:00,
2013-08-03 07:00:00,63.7,60.7,29.81,South,186,4.0,11.0,90,0.00,,,0.00,Wunderground v.1.15,2013-08-03 11:00:00,
2013-08-03 07:10:00,64.1,60.8,29.82,South,184,6.0,6.0,89,0.00,,,0.00,Wunderground v.1.15,2013-08-03 11:10:00,
2013-08-03 07:15:00,64.2,60.9,29.81,South,171,6.0,11.0,89,0.00,,,0.00,Wunderground v.1.15,2013-08-03 11:15:00,
2013-08-03 07:20:00,64.3,60.7,29.82,South,181,6.0,6.0,88,0.00,,,0.00,Wunderground v.1.15,2013-08-03 11:20:00,
2013-08-03 07:25:00,64.3,60.7,29.81,South,173,5.0,11.0,88,0.00,,,0.00,Wunderground v.1.15,2013-08-03 11:25:00,
2013-08-03 07:35:00,64.6,61.0,29.82,South,174,5.0,11.0,88,0.00,,,0.00,Wunderground v.1.15,2013-08-03 11:35:00,
2013-08-03 07:40:00,64.8,61.2,29.82,South,176,4.0,11.0,88,0.00,,,0.00,Wunderground v.1.15,2013-08-03 11:40:00,
2013-08-03 07:45:00,64.9,60.9,29.82,South,180,4.0,11.0,87,0.00,,,0.00,Wunderground v.1.15,2013-08-03 11:45:00,
2013-08-03 07:55:00,65.2,60.9,29.82,SSE,165,4.0,11.0,86,0.00,,,0.00,Wunderground v.1.15,2013-08-03 11:55:00,
2013-08-03 08:05:00,65.6,61.0,29.82,SSW,194,5.0,11.0,85,0.00,,,0.00,Wunderground v.1.15,2013-08-03 12:05:00,
2013-08-03 08:10:00,65.7,60.7,29.82,South,169,5.0,11.0,84,0.00,,,0.00,Wunderground v.1.15,2013-08-03 12:10:00,
2013-08-03 08:15:00,65.8,60.8,29.82,South,186,6.0,11.0,84,0.00,,,0.00,Wunderground v.1.15,2013-08-03 12:15:00,
2013-08-03 08:25:00,66.2,60.9,29.82,South,188,6.0,11.0,83,0.00,,,0.00,Wunderground v.1.15,2013-08-03 12:25:00,
2013-08-03 08:30:00,66.3,61.0,29.82,South,189,6.0,6.0,83,0.00,,,0.00,Wunderground v.1.15,2013-08-03 12:30:00,
2013-08-03 08:35:00,66.5,61.2,29.82,South,189,4.0,11.0,83,0.00,,,0.00,Wunderground v.1.15,2013-08-03 12:35:00,
2013-08-03 08:40:00,66.8,61.1,29.82,SSW,197,5.0,5.0,82,0.00,,,0.00,Wunderground v.1.15,2013-08-03 12:40:00,
2013-08-03 08:45:00,67.0,61.3,29.82,West,265,4.0,7.0,82,0.00,,,0.00,Wunderground v.1.15,2013-08-03 12:45:00,
2013-08-03 08:55:00,67.2,60.8,29.83,SW,220,4.0,11.0,80,0.00,,,0.00,Wunderground v.1.15,2013-08-03 12:55:00,
2013-08-03 09:00:00,67.2,60.8,29.82,SSW,204,5.0,11.0,80,0.00,,,0.00,Wunderground v.1.15,2013-08-03 13:00:00,
2013-08-03 09:05:00,67.2,60.8,29.82,South,184,5.0,11.0,80,0.00,,,0.00,Wunderground v.1.15,2013-08-03 13:05:00,
2013-08-03 09:10:00,67.0,61.0,29.82,SSW,197,5.0,5.0,81,0.00,,,0.00,Wunderground v.1.15,2013-08-03 13:10:00,
2013-08-03 09:20:00,66.9,60.9,29.82,South,186,4.0,11.0,81,0.00,,,0.00,Wunderground v.1.15,2013-08-03 13:20:00,
2013-08-03 09:25:00,67.0,61.0,29.82,SSW,196,5.0,11.0,81,0.00,,,0.00,Wunderground v.1.15,2013-08-03 13:25:00,
2013-08-03 09:30:00,67.0,61.0,29.82,South,190,6.0,6.0,81,0.00,,,0.00,Wunderground v.1.15,2013-08-03 13:30:00,
2013-08-03 09:40:00,67.1,61.4,29.81,South,190,5.0,5.0,82,0.00,,,0.00,Wunderground v.1.15,2013-08-03 13:40:00,
2013-08-03 09:50:00,67.0,61.0,29.82,SSW,194,4.0,11.0,81,0.00,,,0.00,Wunderground v.1.15,2013-08-03 13:50:00,
2013-08-03 09:55:00,67.0,61.3,29.82,SW,232,4.0,11.0,82,0.00,,,0.00,Wunderground v.1.15,2013-08-03 13:55:00,
2013-08-03 10:05:00,67.2,61.9,29.82,SW,223,4.0,11.0,83,0.00,,,0.00,Wunderground v.1.15,2013-08-03 14:05:00,
2013-08-03 10:10:00,67.4,61.7,29.82,WSW,245,4.0,4.0,82,0.00,,,0.00,Wunderground v.1.15,2013-08-03 14:10:00,
2013-08-03 10:15:00,67.5,61.8,29.82,WSW,245,5.0,5.0,82,0.00,,,0.00,Wunderground v.1.15,2013-08-03 14:15:00,
2013-08-03 10:20:00,67.6,61.9,29.82,SW,228,4.0,11.0,82,0.00,,,0.00,Wunderground v.1.15,2013-08-03 14:20:00,
2013-08-03 10:25:00,67.7,61.7,29.82,SSW,199,5.0,11.0,81,0.00,,,0.00,Wunderground v.1.15,2013-08-03 14:25:00,
2013-08-03 10:35:00,67.8,61.8,29.82,WSW,245,5.0,11.0,81,0.00,,,0.00,Wunderground v.1.15,2013-08-03 14:35:00,
2013-08-03 10:40:00,68.0,61.2,29.82,WSW,240,5.0,11.0,79,0.00,,,0.00,Wunderground v.1.15,2013-08-03 14:40:00,
2013-08-03 10:45:00,68.3,61.5,29.82,SW,236,5.0,11.0,79,0.00,,,0.00,Wunderground v.1.15,2013-08-03 14:45:00,
2013-08-03 10:50:00,68.6,61.8,29.82,WSW,245,5.0,11.0,79,0.00,,,0.00,Wunderground v.1.15,2013-08-03 14:50:00,
2013-08-03 10:55:00,68.8,62.0,29.82,SSW,196,5.0,11.0,79,0.00,,,0.00,Wunderground v.1.15,2013-08-03 14:55:00,
2013-08-03 11:05:00,69.4,61.5,29.82,SW,226,6.0,11.0,76,0.00,,,0.00,Wunderground v.1.15,2013-08-03 15:05:00,
2013-08-03 11:10:00,69.4,61.9,29.82,WSW,250,6.0,11.0,77,0.00,,,0.00,Wunderground v.1.15,2013-08-03 15:10:00,
2013-08-03 11:20:00,69.4,61.9,29.82,WSW,239,6.0,6.0,77,0.00,,,0.00,Wunderground v.1.15,2013-08-03 15:20:00,
2013-08-03 11:25:00,69.6,61.7,29.81,WSW,237,5.0,11.0,76,0.00,,,0.00,Wunderground v.1.15,2013-08-03 15:25:00,
2013-08-03 11:30:00,69.8,61.9,29.82,WSW,245,6.0,12.0,76,0.00,,,0.00,Wunderground v.1.15,2013-08-03 15:30:00,
2013-08-03 11:35:00,70.2,62.6,29.82,West,261,7.0,12.0,77,0.00,,,0.00,Wunderground v.1.15,2013-08-03 15:35:00,
2013-08-03 11:40:00,70.6,62.7,29.81,WSW,245,6.0,11.0,76,0.00,,,0.00,Wunderground v.1.15,2013-08-03 15:40:00,
2013-08-03 11:50:00,70.9,62.2,29.81,WSW,245,7.0,7.0,74,0.00,,,0.00,Wunderground v.1.15,2013-08-03 15:50:00,
2013-08-03 11:55:00,71.3,61.8,29.81,SW,232,5.0,9.0,72,0.00,,,0.00,Wunderground v.1.15,2013-08-03 15:55:00,
2013-08-03 12:00:00,71.1,61.6,29.81,SSW,201,5.0,5.0,72,0.00,,,0.00,Wunderground v.1.15,2013-08-03 16:00:00,
2013-08-03 12:10:00,71.2,61.7,29.81,WSW,238,6.0,11.0,72,0.00,,,0.00,Wunderground v.1.15,2013-08-03 16:10:00,
2013-08-03 12:15:00,71.5,62.4,29.81,SW,223,5.0,11.0,73,0.00,,,0.00,Wunderground v.1.15,2013-08-03 16:15:00,
2013-08-03 12:25:00,71.7,62.2,29.80,SSW,196,5.0,11.0,72,0.00,,,0.00,Wunderground v.1.15,2013-08-03 16:25:00,
2013-08-03 12:30:00,72.3,61.6,29.80,WSW,240,4.0,4.0,69,0.00,,,0.00,Wunderground v.1.15,2013-08-03 16:30:00,
2013-08-03 12:35:00,72.4,62.1,29.80,WSW,239,4.0,5.0,70,0.00,,,0.00,Wunderground v.1.15,2013-08-03 16:35:00,
2013-08-03 12:45:00,72.6,61.8,29.81,West,267,6.0,11.0,69,0.00,,,0.00,Wunderground v.1.15,2013-08-03 16:45:00,
2013-08-03 12:50:00,72.9,62.5,29.80,WSW,255,5.0,11.0,70,0.00,,,0.00,Wunderground v.1.15,2013-08-03 16:50:00,
2013-08-03 12:55:00,72.9,62.1,29.80,SSW,210,6.0,11.0,69,0.00,,,0.00,Wunderground v.1.15,2013-08-03 16:55:00,
2013-08-03 13:05:00,73.1,62.3,29.80,West,269,8.0,11.0,69,0.00,,,0.00,Wunderground v.1.15,2013-08-03 17:05:00,
2013-08-03 13:10:00,73.2,62.4,29.80,South,190,6.0,11.0,69,0.00,,,0.00,Wunderground v.1.15,2013-08-03 17:10:00,
2013-08-03 13:15:00,73.4,62.6,29.80,SW,233,5.0,11.0,69,0.00,,,0.00,Wunderground v.1.15,2013-08-03 17:15:00,
2013-08-03 13:20:00,74.2,63.4,29.80,WSW,240,4.0,4.0,69,0.00,,,0.00,Wunderground v.1.15,2013-08-03 17:20:00,
2013-08-03 13:25:00,74.6,63.8,29.79,WSW,255,3.0,11.0,69,0.00,,,0.00,Wunderground v.1.15,2013-08-03 17:25:00,
2013-08-03 13:30:00,74.7,62.1,29.79,SSW,213,2.0,2.0,65,0.00,,,0.00,Wunderground v.1.15,2013-08-03 17:30:00,
2013-08-03 13:40:00,73.4,60.9,29.80,SSW,209,6.0,11.0,65,0.00,,,0.00,Wunderground v.1.15,2013-08-03 17:40:00,
2013-08-03 13:45:00,73.6,60.7,29.80,WSW,245,7.0,11.0,64,0.00,,,0.00,Wunderground v.1.15,2013-08-03 17:45:00,
2013-08-03 13:55:00,73.3,59.9,29.80,SW,225,7.0,10.0,63,0.00,,,0.00,Wunderground v.1.15,2013-08-03 17:55:00,
2013-08-03 14:00:00,73.6,60.2,29.80,SSW,194,7.0,7.0,63,0.00,,,0.00,Wunderground v.1.15,2013-08-03 18:00:00,
2013-08-03 14:10:00,73.1,59.3,29.80,WSW,250,8.0,8.0,62,0.00,,,0.00,Wunderground v.1.15,2013-08-03 18:10:00,
2013-08-03 14:15:00,73.0,60.5,29.80,SW,221,8.0,11.0,65,0.00,,,0.00,Wunderground v.1.15,2013-08-03 18:15:00,
2013-08-03 14:25:00,73.5,60.6,29.80,SSW,194,6.0,10.0,64,0.00,,,0.00,Wunderground v.1.15,2013-08-03 18:25:00,
2013-08-03 14:30:00,74.1,62.0,29.80,SSW,197,6.0,11.0,66,0.00,,,0.00,Wunderground v.1.15,2013-08-03 18:30:00,
2013-08-03 14:35:00,74.2,60.3,29.79,SSW,208,5.0,11.0,62,0.00,,,0.00,Wunderground v.1.15,2013-08-03 18:35:00,
2013-08-03 14:40:00,73.7,60.8,29.79,SSW,200,6.0,11.0,64,0.00,,,0.00,Wunderground v.1.15,2013-08-03 18:40:00,
2013-08-03 14:45:00,73.7,60.8,29.79,South,184,8.0,11.0,64,0.00,,,0.00,Wunderground v.1.15,2013-08-03 18:45:00,
2013-08-03 14:55:00,73.7,61.6,29.79,SSW,213,4.0,11.0,66,0.00,,,0.00,Wunderground v.1.15,2013-08-03 18:55:00,
2013-08-03 15:00:00,73.9,62.7,29.79,South,191,4.0,11.0,68,0.00,,,0.00,Wunderground v.1.15,2013-08-03 19:00:00,
2013-08-03 15:10:00,74.2,63.4,29.79,South,190,5.0,11.0,69,0.00,,,0.00,Wunderground v.1.15,2013-08-03 19:10:00,
2013-08-03 15:20:00,74.7,63.4,29.79,South,184,6.0,6.0,68,0.00,,,0.00,Wunderground v.1.15,2013-08-03 19:20:00,
2013-08-03 15:25:00,74.9,62.8,29.79,WSW,245,5.0,8.0,66,0.00,,,0.00,Wunderground v.1.15,2013-08-03 19:25:00,
2013-08-03 15:30:00,75.2,63.1,29.78,South,188,6.0,11.0,66,0.00,,,0.00,Wunderground v.1.15,2013-08-03 19:30:00,
2013-08-03 15:35:00,75.1,61.6,29.78,South,178,6.0,11.0,63,0.00,,,0.00,Wunderground v.1.15,2013-08-03 19:35:00,
2013-08-03 15:40:00,75.2,61.7,29.78,South,188,7.0,11.0,63,0.00,,,0.00,Wunderground v.1.15,2013-08-03 19:40:00,
2013-08-03 15:50:00,75.7,63.1,29.78,South,191,7.0,7.0,65,0.00,,,0.00,Wunderground v.1.15,2013-08-03 19:50:00,
2013-08-03 15:55:00,75.6,62.6,29.77,South,184,6.0,11.0,64,0.00,,,0.00,Wunderground v.1.15,2013-08-03 19:55:00,
2013-08-03 16:00:00,75.5,63.3,29.77,SSW,213,6.0,6.0,66,0.00,,,0.00,Wunderground v.1.15,2013-08-03 20:00:00,
2013-08-03 16:10:00,75.9,62.4,29.78,South,188,6.0,11.0,63,0.00,,,0.00,Wunderground v.1.15,2013-08-03 20:10:00,
2013-08-03 16:15:00,76.1,63.5,29.78,SW,226,5.0,11.0,65,0.00,,,0.00,Wunderground v.1.15,2013-08-03 20:15:00,
2013-08-03 16:20:00,75.7,62.2,29.78,WSW,238,6.0,11.0,63,0.00,,,0.00,Wunderground v.1.15,2013-08-03 20:20:00,
2013-08-03 16:25:00,75.7,62.7,29.78,WSW,250,7.0,11.0,64,0.00,,,0.00,Wunderground v.1.15,2013-08-03 20:25:00,
2013-08-03 16:35:00,76.0,63.8,29.77,South,190,4.0,11.0,66,0.00,,,0.00,Wunderground v.1.15,2013-08-03 20:35:00,
2013-08-03 16:40:00,75.7,63.5,29.77,SW,215,5.0,5.0,66,0.00,,,0.00,Wunderground v.1.15,2013-08-03 20:40:00,
2013-08-03 16:45:00,75.3,62.7,29.77,SW,233,6.0,6.0,65,0.00,,,0.00,Wunderground v.1.15,2013-08-03 20:45:00,
2013-08-03 16:50:00,75.6,63.0,29.77,SSW,192,5.0,11.0,65,0.00,,,0.00,Wunderground v.1.15,2013-08-03 20:50:00,
2013-08-03 16:55:00,75.8,62.8,29.77,South,191,4.0,11.0,64,0.00,,,0.00,Wunderground v.1.15,2013-08-03 20:55:00,
2013-08-03 17:05:00,76.0,62.0,29.77,SSW,192,4.0,11.0,62,0.00,,,0.00,Wunderground v.1.15,2013-08-03 21:05:00,
2013-08-03 17:10:00,75.8,61.4,29.77,SSW,203,4.0,11.0,61,0.00,,,0.00,Wunderground v.1.15,2013-08-03 21:10:00,
2013-08-03 17:15:00,75.8,62.3,29.77,SSW,199,5.0,11.0,63,0.00,,,0.00,Wunderground v.1.15,2013-08-03 21:15:00,
2013-08-03 17:25:00,75.9,62.4,29.77,SSW,203,4.0,11.0,63,0.00,,,0.00,Wunderground v.1.15,2013-08-03 21:25:00,
2013-08-03 17:30:00,75.4,61.5,29.77,SSW,201,4.0,4.0,62,0.00,,,0.00,Wunderground v.1.15,2013-08-03 21:30:00,
2013-08-03 17:35:00,75.6,62.1,29.77,South,180,3.0,11.0,63,0.00,,,0.00,Wunderground v.1.15,2013-08-03 21:35:00,
2013-08-03 17:40:00,75.4,61.5,29.77,SW,224,4.0,11.0,62,0.00,,,0.00,Wunderground v.1.15,2013-08-03 21:40:00,
2013-08-03 17:45:00,75.0,61.5,29.77,SW,216,5.0,11.0,63,0.00,,,0.00,Wunderground v.1.15,2013-08-03 21:45:00,
2013-08-03 17:55:00,75.8,62.3,29.77,SSW,194,2.0,11.0,63,0.00,,,0.00,Wunderground v.1.15,2013-08-03 21:55:00,
2013-08-03 18:00:00,75.6,62.1,29.77,South,191,4.0,4.0,63,0.00,,,0.00,Wunderground v.1.15,2013-08-03 22:00:00,
2013-08-03 18:05:00,75.4,61.9,29.77,South,190,4.0,11.0,63,0.00,,,0.00,Wunderground v.1.15,2013-08-03 22:05:00,
2013-08-03 18:10:00,75.3,62.3,29.77,South,187,4.0,4.0,64,0.00,,,0.00,Wunderground v.1.15,2013-08-03 22:10:00,
2013-08-03 18:15:00,74.8,62.2,29.77,SSW,200,4.0,11.0,65,0.00,,,0.00,Wunderground v.1.15,2013-08-03 22:15:00,
2013-08-03 18:20:00,74.0,61.9,29.77,SSW,196,3.0,11.0,66,0.00,,,0.00,Wunderground v.1.15,2013-08-03 22:20:00,
2013-08-03 18:30:00,73.8,62.6,29.78,South,181,3.0,3.0,68,0.00,,,0.00,Wunderground v.1.15,2013-08-03 22:30:00,
2013-08-03 18:35:00,74.3,62.2,29.78,SSW,194,3.0,4.0,66,0.00,,,0.00,Wunderground v.1.15,2013-08-03 22:35:00,
2013-08-03 18:40:00,74.4,62.7,29.78,South,191,3.0,3.0,67,0.00,,,0.00,Wunderground v.1.15,2013-08-03 22:40:00,
2013-08-03 18:45:00,74.4,63.1,29.78,SSW,192,3.0,11.0,68,0.00,,,0.00,Wunderground v.1.15,2013-08-03 22:45:00,
2013-08-03 18:55:00,74.4,62.7,29.77,SSW,192,1.0,11.0,67,0.00,,,0.00,Wunderground v.1.15,2013-08-03 22:55:00,
2013-08-03 19:00:00,74.5,62.8,29.78,SSW,192,1.0,11.0,67,0.00,,,0.00,Wunderground v.1.15,2013-08-03 23:00:00,
2013-08-03 19:05:00,74.2,63.0,29.78,SSW,192,1.0,11.0,68,0.00,,,0.00,Wunderground v.1.15,2013-08-03 23:05:00,
2013-08-03 19:10:00,74.0,63.2,29.78,SSW,192,1.0,1.0,69,0.00,,,0.00,Wunderground v.1.15,2013-08-03 23:10:00,
2013-08-03 19:15:00,73.6,63.6,29.78,SSW,192,0.0,11.0,71,0.00,,,0.00,Wunderground v.1.15,2013-08-03 23:15:00,
2013-08-03 19:25:00,72.8,63.2,29.78,SSW,192,1.0,11.0,72,0.00,,,0.00,Wunderground v.1.15,2013-08-03 23:25:00,
2013-08-03 19:30:00,72.4,63.3,29.79,SSW,192,2.0,11.0,73,0.00,,,0.00,Wunderground v.1.15,2013-08-03 23:30:00,
2013-08-03 19:35:00,72.0,63.3,29.79,SSW,192,2.0,11.0,74,0.00,,,0.00,Wunderground v.1.15,2013-08-03 23:35:00,
2013-08-03 19:45:00,70.8,63.2,29.79,SSW,192,2.0,11.0,77,0.00,,,0.00,Wunderground v.1.15,2013-08-03 23:45:00,
2013-08-03 19:50:00,69.9,63.4,29.79,SSW,192,2.0,11.0,80,0.00,,,0.00,Wunderground v.1.15,2013-08-03 23:50:00,
2013-08-03 19:55:00,68.7,63.3,29.80,SSW,192,2.0,11.0,83,0.00,,,0.00,Wunderground v.1.15,2013-08-03 23:55:00,
2013-08-03 20:00:00,67.9,61.5,29.80,SSW,192,2.0,11.0,80,0.00,,,0.00,Wunderground v.1.15,2013-08-04 00:00:00,
2013-08-03 20:10:00,67.7,59.1,29.80,SW,232,2.0,11.0,74,0.00,,,0.00,Wunderground v.1.15,2013-08-04 00:10:00,
2013-08-03 20:15:00,67.9,58.9,29.81,SW,220,2.0,11.0,73,0.00,,,0.00,Wunderground v.1.15,2013-08-04 00:15:00,
2013-08-03 20:20:00,68.1,57.5,29.80,SW,230,3.0,11.0,69,0.00,,,0.00,Wunderground v.1.15,2013-08-04 00:20:00,
2013-08-03 20:30:00,68.7,56.0,29.81,WSW,245,4.0,11.0,64,0.00,,,0.00,Wunderground v.1.15,2013-08-04 00:30:00,
2013-08-03 20:40:00,68.4,55.7,29.81,WSW,240,5.0,5.0,64,0.00,,,0.00,Wunderground v.1.15,2013-08-04 00:40:00,
2013-08-03 20:45:00,68.5,55.4,29.81,WSW,250,5.0,6.0,63,0.00,,,0.00,Wunderground v.1.15,2013-08-04 00:45:00,
2013-08-03 20:50:00,68.8,55.2,29.81,WSW,255,6.0,11.0,62,0.00,,,0.00,Wunderground v.1.15,2013-08-04 00:50:00,
2013-08-03 20:55:00,69.0,55.0,29.82,WSW,245,6.0,11.0,61,0.00,,,0.00,Wunderground v.1.15,2013-08-04 00:55:00,
2013-08-03 21:00:00,69.0,55.0,29.82,SW,236,5.0,5.0,61,0.00,,,0.00,Wunderground v.1.15,2013-08-04 01:00:00,
2013-08-03 21:05:00,68.7,55.6,29.82,SSW,211,4.0,11.0,63,0.00,,,0.00,Wunderground v.1.15,2013-08-04 01:05:00,
2013-08-03 21:15:00,67.7,55.1,29.82,SW,219,2.0,11.0,64,0.00,,,0.00,Wunderground v.1.15,2013-08-04 01:15:00,
2013-08-03 21:20:00,67.3,55.5,29.83,SW,219,2.0,11.0,66,0.00,,,0.00,Wunderground v.1.15,2013-08-04 01:20:00,
2013-08-03 21:25:00,66.6,56.5,29.83,SSW,205,3.0,11.0,70,0.00,,,0.00,Wunderground v.1.15,2013-08-04 01:25:00,
2013-08-03 21:35:00,65.6,57.1,29.83,SSW,206,3.0,11.0,74,0.00,,,0.00,Wunderground v.1.15,2013-08-04 01:35:00,
2013-08-03 21:40:00,65.1,57.3,29.83,SSW,206,3.0,3.0,76,0.00,,,0.00,Wunderground v.1.15,2013-08-04 01:40:00,
2013-08-03 21:45:00,64.4,57.4,29.83,SSW,206,3.0,11.0,78,0.00,,,0.00,Wunderground v.1.15,2013-08-04 01:45:00,
2013-08-03 21:50:00,64.2,57.2,29.84,SSW,205,3.0,11.0,78,0.00,,,0.00,Wunderground v.1.15,2013-08-04 01:50:00,
2013-08-03 22:00:00,63.8,56.8,29.84,SSW,205,3.0,11.0,78,0.00,,,0.00,Wunderground v.1.15,2013-08-04 02:00:00,
2013-08-03 22:05:00,63.7,57.1,29.83,SSW,205,3.0,11.0,79,0.00,,,0.00,Wunderground v.1.15,2013-08-04 02:05:00,
2013-08-03 22:10:00,63.3,56.0,29.84,SSW,205,3.0,3.0,77,0.00,,,0.00,Wunderground v.1.15,2013-08-04 02:10:00,
2013-08-03 22:15:00,63.1,55.8,29.84,SW,234,2.0,11.0,77,0.00,,,0.00,Wunderground v.1.15,2013-08-04 02:15:00,
2013-08-03 22:20:00,64.1,54.9,29.84,SW,234,3.0,11.0,72,0.00,,,0.00,Wunderground v.1.15,2013-08-04 02:20:00,
2013-08-03 22:30:00,66.2,54.5,29.84,WSW,255,5.0,11.0,66,0.00,,,0.00,Wunderground v.1.15,2013-08-04 02:30:00,
2013-08-03 22:35:00,66.1,54.8,29.84,WSW,238,5.0,11.0,67,0.00,,,0.00,Wunderground v.1.15,2013-08-04 02:35:00,
2013-08-03 22:40:00,65.9,54.6,29.84,SW,224,5.0,5.0,67,0.00,,,0.00,Wunderground v.1.15,2013-08-04 02:40:00,
2013-08-03 22:50:00,65.8,54.1,29.83,WSW,255,5.0,5.0,66,0.00,,,0.00,Wunderground v.1.15,2013-08-04 02:50:00,
2013-08-03 22:55:00,65.8,54.1,29.83,SW,232,5.0,6.0,66,0.00,,,0.00,Wunderground v.1.15,2013-08-04 02:55:00,
2013-08-03 23:00:00,65.9,54.2,29.83,SW,232,6.0,11.0,66,0.00,,,0.00,Wunderground v.1.15,2013-08-04 03:00:00,
2013-08-03 23:05:00,65.8,54.1,29.84,WSW,237,6.0,11.0,66,0.00,,,0.00,Wunderground v.1.15,2013-08-04 03:05:00,
2013-08-03 23:15:00,65.8,53.7,29.83,WSW,240,5.0,11.0,65,0.00,,,0.00,Wunderground v.1.15,2013-08-04 03:15:00,
2013-08-03 23:20:00,65.7,53.6,29.84,WSW,238,5.0,11.0,65,0.00,,,0.00,Wunderground v.1.15,2013-08-04 03:20:00,
2013-08-03 23:25:00,65.6,53.5,29.83,SW,236,5.0,11.0,65,0.00,,,0.00,Wunderground v.1.15,2013-08-04 03:25:00,
2013-08-03 23:30:00,65.4,53.3,29.83,SW,232,5.0,11.0,65,0.00,,,0.00,Wunderground v.1.15,2013-08-04 03:30:00,
2013-08-03 23:35:00,65.3,53.2,29.83,West,261,5.0,11.0,65,0.00,,,0.00,Wunderground v.1.15,2013-08-04 03:35:00,
2013-08-03 23:45:00,65.0,53.4,29.83,WSW,237,5.0,11.0,66,0.00,,,0.00,Wunderground v.1.15,2013-08-04 03:45:00,
2013-08-03 23:50:00,64.9,53.3,29.83,WSW,245,5.0,11.0,66,0.00,,,0.00,Wunderground v.1.15,2013-08-04 03:50:00,
2013-08-03 23:55:00,64.8,53.2,29.83,WSW,245,5.0,11.0,66,0.00,,,0.00,Wunderground v.1.15,2013-08-04 03:55:00,